FW4339 Weather Reports


Display with metric or nautical units.
time (UTC)temp
F
wind
direction
speed
MPH
gust
MPH
rain 1hr
in
rain 24hr
in
rain mn
in
humidity
%
barometer
mb
20260901023031 77 0.0 0.0 0.00 0.00 0.00 49 1012.2
20260901021528 78 0.0 0.0 0.00 0.00 0.00 47 1012.2
20260901020028 78 0.0 0.0 0.00 0.00 0.00 46 1012.2
20260901014526 78 0.0 0.0 0.00 0.00 0.00 45 1012.2
20260901013037 78 0.0 0.0 0.00 0.00 0.00 45 1012.2
20260901011533 78 0.0 0.0 0.00 0.00 0.00 45 1012.3
20260901010034 78 0.0 0.0 0.00 0.00 0.00 44 1012.3
20260901004530 78 0.0 0.0 0.00 0.00 0.00 44 1012.3
20260901003031 79 0.0 0.0 0.00 0.00 0.00 43 1012.4
20260901001531 79 0.0 0.0 0.00 0.00 0.00 42 1012.3
20260901000024 79 0.0 0.0 0.00 0.00 0.00 42 1012.3
20260831234523 79 0.0 0.0 0.00 0.00 0.00 42 1012.3
20260831233026 79 0.0 0.0 0.00 0.00 0.00 42 1012.4
20260831231524 79 0.0 0.0 0.00 0.00 0.00 42 1012.5
20260831230023 79 0.0 0.0 0.00 0.00 0.00 44 1012.5
20260831224523 79 0.0 0.0 0.00 0.00 0.00 45 1012.7
20260831223024 79 0.0 0.0 0.00 0.00 0.00 46 1012.8
20260831221532 79 0.0 0.0 0.00 0.00 0.00 49 1012.9
20260831220023 79 0.0 0.0 0.00 0.00 0.00 48 1012.9
20260831214527 79 0.0 0.0 0.00 0.00 0.00 48 1013.0
20260831213021 82 0.0 0.0 0.00 0.00 0.00 42 1012.9
20260831211521 82 0.0 0.0 0.00 0.00 0.00 37 1012.8
20260831210021 82 0.0 0.0 0.00 0.00 0.00 38 1012.8
20260831204522 82 0.0 0.0 0.00 0.00 0.00 38 1012.7
20260831203031 82 0.0 0.0 0.00 0.00 0.00 38 1012.8
20260831201531 82 0.0 0.0 0.00 0.00 0.00 38 1012.7
20260831200031 83 0.0 0.0 0.00 0.00 0.00 37 1012.8
20260831194530 83 0.0 0.0 0.00 0.00 0.00 37 1012.6
20260831193034 82 0.0 0.0 0.00 0.00 0.00 38 1012.5
20260831191519 82 0.0 0.0 0.00 0.00 0.00 40 1012.5
20260831190034 82 0.0 0.0 0.00 0.00 0.00 42 1012.5
20260831184518 81 0.0 0.0 0.00 0.00 0.00 44 1012.4
20260831183021 80 0.0 0.0 0.00 0.00 0.00 47 1012.3
20260831181521 81 0.0 0.0 0.00 0.00 0.00 50 1012.3
20260831180020 81 0.0 0.0 0.00 0.00 0.00 50 1012.2
20260831174521 82 0.0 0.0 0.00 0.00 0.00 49 1012.3
20260831173023 82 0.0 0.0 0.00 0.00 0.00 48 1012.3
20260831171520 83 0.0 0.0 0.00 0.00 0.00 47 1012.2
20260831170020 83 0.0 0.0 0.00 0.00 0.00 45 1012.1
20260831164522 85 0.0 0.0 0.00 0.00 0.00 43 1012.1
20260831163018 86 0.0 0.0 0.00 0.00 0.00 41 1012.2
20260831161514 87 0.0 0.0 0.00 0.00 0.00 39 1012.1
20260831160014 87 0.0 0.0 0.00 0.00 0.00 37 1012.2
20260831154523 88 0.0 0.0 0.00 0.00 0.00 35 1012.2
20260831153017 88 0.0 0.0 0.00 0.00 0.00 34 1012.2
20260831151515 89 0.0 0.0 0.00 0.00 0.00 32 1012.3
20260831150016 90 0.0 0.0 0.00 0.00 0.00 32 1012.3
20260831144513 92 0.0 0.0 0.00 0.00 0.00 31 1012.5
20260831143011 92 0.0 0.0 0.00 0.00 0.00 30 1012.5
20260831141513 93 0.0 0.0 0.00 0.00 0.00 30 1012.6
20260831140011 93 0.0 0.0 0.00 0.00 0.00 29 1012.5
20260831134517 94 0.0 0.0 0.00 0.00 0.00 28 1012.6
20260831133014 95 0.0 0.0 0.00 0.00 0.00 28 1012.5
20260831131508 95 0.0 0.0 0.00 0.00 0.00 29 1012.5
20260831130008 96 0.0 0.0 0.00 0.00 0.00 28 1012.6
20260831124506 96 0.0 0.0 0.00 0.00 0.00 28 1012.7
20260831123012 98 0.0 0.0 0.00 0.00 0.00 27 1012.8
20260831121512 98 0.0 0.0 0.00 0.00 0.00 27 1012.8
20260831120018 98 0.0 0.0 0.00 0.00 0.00 26 1012.8
20260831114509 98 0.0 0.0 0.00 0.00 0.00 26 1013.0
20260831113109 97 0.0 0.0 0.00 0.00 0.00 27 1013.2
20260831111600 97 0.0 0.0 0.00 0.00 0.00 27 1013.3
20260831110059 97 0.0 0.0 0.00 0.00 0.00 27 1013.3
20260831104600 96 0.0 0.0 0.00 0.00 0.00 27 1013.4
20260831103105 96 0.0 0.0 0.00 0.00 0.00 28 1013.6
20260831101558 96 0.0 0.0 0.00 0.00 0.00 30 1013.6
20260831100052 95 0.0 0.0 0.00 0.00 0.00 29 1013.7
20260831094602 94 0.0 0.0 0.00 0.00 0.00 30 1014.0
20260831093128 94 0.0 0.0 0.00 0.00 0.00 30 1014.0
20260831091549 94 0.0 0.0 0.00 0.00 0.00 31 1014.1
20260831090042 93 0.0 0.0 0.00 0.00 0.00 32 1014.2
20260831084622 92 0.0 0.0 0.00 0.00 0.00 33 1014.3
20260831083046 92 0.0 0.0 0.00 0.00 0.00 35 1014.2
20260831081535 91 0.0 0.0 0.00 0.00 0.00 37 1014.2
20260831080039 90 0.0 0.0 0.00 0.00 0.00 38 1014.2
20260831074542 89 0.0 0.0 0.00 0.00 0.00 39 1014.2
20260831073020 89 0.0 0.0 0.00 0.00 0.00 42 1014.1
20260831071515 87 0.0 0.0 0.00 0.00 0.00 43 1014.1
20260831070011 86 0.0 0.0 0.00 0.00 0.00 47 1014.2
20260831064507 85 0.0 0.0 0.00 0.00 0.00 48 1014.2
20260831063003 84 0.0 0.0 0.00 0.00 0.00 49 1014.2
20260831061559 83 0.0 0.0 0.00 0.00 0.00 53 1014.3
20260831060056 81 0.0 0.0 0.00 0.00 0.00 54 1014.3
20260831054550 80 0.0 0.0 0.00 0.00 0.00 55 1014.3
20260831053059 80 0.0 0.0 0.00 0.00 0.00 56 1014.4
20260831051549 79 0.0 0.0 0.00 0.00 0.00 57 1014.2
20260831050041 78 0.0 0.0 0.00 0.00 0.00 59 1014.2
20260831044539 78 0.0 0.0 0.00 0.00 0.00 60 1014.1
20260831043035 77 0.0 0.0 0.00 0.00 0.00 59 1014.1
20260831041536 76 0.0 0.0 0.00 0.00 0.00 58 1014.1
20260831040036 76 0.0 0.0 0.00 0.00 0.00 56 1014.0
20260831034528 77 0.0 0.0 0.00 0.00 0.00 55 1014.0
20260831033033 77 0.0 0.0 0.00 0.00 0.00 55 1013.8
20260831031527 77 0.0 0.0 0.00 0.00 0.00 54 1013.6
20260831030025 77 0.0 0.0 0.00 0.00 0.00 52 1013.8
20260831024527 77 0.0 0.0 0.00 0.00 0.00 50 1013.8